Meteo pe oră la Bolshoe Ignatovo

Astăzi, 6 Mai, Joi

Timp Temperatura Precipitaţii Vânt Presiune Umiditate
00:00 +4°C° 0 mm 3 m/s 740 mmHg 89%
01:00 +5°C° 0 mm 3 m/s 741 mmHg 87%
02:00 +7°C° 0 mm 3 m/s 741 mmHg 85%
03:00 +6°C° 0 mm 4 m/s 741 mmHg 84%
04:00 +7°C° 0 mm 3 m/s 741 mmHg 85%
05:00 +7°C° 0 mm 3 m/s 741 mmHg 86%
06:00 +7°C° 0 mm 3 m/s 742 mmHg 86%
07:00 +9°C° 0 mm 3 m/s 742 mmHg 80%
08:00 +11°C° 0 mm 4 m/s 742 mmHg 74%
09:00 +13°C° 0 mm 4 m/s 742 mmHg 65%
10:00 +14°C° 0 mm 5 m/s 742 mmHg 60%
11:00 +16°C° 0 mm 6 m/s 742 mmHg 56%
12:00 +17°C° 0 mm 6 m/s 742 mmHg 51%
13:00 +17°C° 0 mm 6 m/s 742 mmHg 52%
14:00 +17°C° 0 mm 6 m/s 742 mmHg 54%
15:00 +17°C° 0 mm 6 m/s 742 mmHg 55%
16:00 +16°C° 0 mm 6 m/s 742 mmHg 58%
17:00 +15°C° 0 mm 5 m/s 742 mmHg 61%
18:00 +15°C° 0 mm 5 m/s 742 mmHg 64%
19:00 +14°C° 0 mm 5 m/s 742 mmHg 67%
20:00 +13°C° 0 mm 4 m/s 742 mmHg 70%
21:00 +12°C° 0 mm 4 m/s 742 mmHg 73%
22:00 +11°C° 0 mm 4 m/s 742 mmHg 74%
23:00 +11°C° 0 mm 4 m/s 741 mmHg 75%

Mâine, 7 Mai, Vineri

Timp Temperatura Precipitaţii Vânt Presiune Umiditate
00:00 +10°C° 0 mm 4 m/s 741 mmHg 75%
01:00 +10°C° 0 mm 4 m/s 741 mmHg 76%
02:00 +10°C° 0 mm 4 m/s 741 mmHg 76%
03:00 +10°C° 0 mm 4 m/s 741 mmHg 77%
04:00 +10°C° 0 mm 4 m/s 741 mmHg 76%
05:00 +9°C° 0 mm 5 m/s 741 mmHg 75%
06:00 +9°C° 0 mm 5 m/s 741 mmHg 74%
07:00 +9°C° 0 mm 5 m/s 741 mmHg 73%
08:00 +10°C° 0 mm 5 m/s 741 mmHg 71%
09:00 +10°C° 0 mm 5 m/s 741 mmHg 70%
10:00 +12°C° 0 mm 5 m/s 741 mmHg 66%
11:00 +14°C° 0 mm 6 m/s 741 mmHg 61%
12:00 +15°C° 0 mm 7 m/s 741 mmHg 57%
13:00 +14°C° 0.3 mm 6 m/s 741 mmHg 65%
14:00 +11°C° 0.3 mm 6 m/s 742 mmHg 73%
15:00 +9°C° 0.3 mm 5 m/s 742 mmHg 82%
16:00 +8°C° 0.2 mm 4 m/s 742 mmHg 84%
17:00 +8°C° 0.2 mm 3 m/s 743 mmHg 86%
18:00 +8°C° 0.2 mm 2 m/s 743 mmHg 88%
19:00 +7°C° 0 mm 2 m/s 744 mmHg 89%
20:00 +7°C° 0 mm 1 m/s 744 mmHg 90%
21:00 +6°C° 0 mm 0 m/s 744 mmHg 92%
22:00 +6°C° 0 mm 0 m/s 744 mmHg 91%
23:00 +6°C° 0 mm 1 m/s 745 mmHg 91%

Poimâine, 8 Mai, Sâmbătă

Timp Temperatura Precipitaţii Vânt Presiune Umiditate
00:00 +6°C° 0 mm 1 m/s 745 mmHg 91%
01:00 +6°C° 0 mm 1 m/s 745 mmHg 90%
02:00 +6°C° 0 mm 1 m/s 745 mmHg 90%
03:00 +5°C° 0 mm 1 m/s 745 mmHg 89%
04:00 +6°C° 0 mm 1 m/s 745 mmHg 88%
05:00 +7°C° 0 mm 1 m/s 745 mmHg 86%
06:00 +7°C° 0 mm 1 m/s 745 mmHg 84%
07:00 +8°C° 0 mm 2 m/s 744 mmHg 79%
08:00 +9°C° 0 mm 3 m/s 744 mmHg 73%
09:00 +10°C° 0 mm 5 m/s 744 mmHg 67%
10:00 +12°C° 0 mm 5 m/s 743 mmHg 66%
11:00 +14°C° 0 mm 5 m/s 743 mmHg 64%
12:00 +15°C° 0 mm 6 m/s 743 mmHg 62%
13:00 +15°C° 0 mm 5 m/s 742 mmHg 61%
14:00 +16°C° 0 mm 5 m/s 742 mmHg 61%
15:00 +16°C° 0 mm 5 m/s 741 mmHg 60%
16:00 +16°C° 0 mm 5 m/s 741 mmHg 61%
17:00 +15°C° 0 mm 4 m/s 741 mmHg 62%
18:00 +15°C° 0 mm 4 m/s 740 mmHg 63%
19:00 +14°C° 0 mm 4 m/s 740 mmHg 66%
20:00 +12°C° 0 mm 3 m/s 740 mmHg 69%
21:00 +11°C° 0 mm 3 m/s 740 mmHg 73%
22:00 +11°C° 0 mm 4 m/s 739 mmHg 71%
23:00 +12°C° 0 mm 4 m/s 739 mmHg 69%

9 Mai, Duminică

Timp Temperatura Precipitaţii Vânt Presiune Umiditate
00:00 +12°C° 0 mm 5 m/s 739 mmHg 67%
01:00 +12°C° 0.3 mm 5 m/s 739 mmHg 73%
02:00 +12°C° 0.3 mm 5 m/s 738 mmHg 79%
03:00 +10°C° 0.3 mm 5 m/s 738 mmHg 86%
04:00 +10°C° 0.6 mm 5 m/s 738 mmHg 86%
05:00 +11°C° 0.6 mm 4 m/s 739 mmHg 87%
06:00 +11°C° 0.6 mm 4 m/s 739 mmHg 87%
07:00 +11°C° 0.1 mm 4 m/s 739 mmHg 87%
08:00 +10°C° 0.1 mm 3 m/s 740 mmHg 88%
09:00 +10°C° 0.1 mm 3 m/s 741 mmHg 88%
10:00 +9°C° 0.2 mm 3 m/s 741 mmHg 86%
11:00 +9°C° 0.2 mm 3 m/s 742 mmHg 85%
12:00 +9°C° 0.2 mm 3 m/s 742 mmHg 83%
13:00 +8°C° 0.9 mm 3 m/s 742 mmHg 85%
14:00 +8°C° 0.9 mm 3 m/s 743 mmHg 87%
15:00 +8°C° 0.9 mm 3 m/s 743 mmHg 89%
16:00 +8°C° 0.9 mm 3 m/s 744 mmHg 89%
17:00 +8°C° 0.9 mm 3 m/s 744 mmHg 90%
18:00 +7°C° 0.9 mm 2 m/s 745 mmHg 90%
19:00 +7°C° 0.2 mm 2 m/s 746 mmHg 90%
20:00 +7°C° 0.2 mm 2 m/s 746 mmHg 90%
21:00 +7°C° 0.2 mm 2 m/s 747 mmHg 90%
22:00 +7°C° 0 mm 2 m/s 747 mmHg 90%
23:00 +7°C° 0 mm 3 m/s 747 mmHg 89%

10 Mai, Luni

Timp Temperatura Precipitaţii Vânt Presiune Umiditate
00:00 +5°C° 0 mm 3 m/s 748 mmHg 89%
01:00 +5°C° 0 mm 3 m/s 748 mmHg 90%
02:00 +4°C° 0 mm 3 m/s 749 mmHg 91%
03:00 +4°C° 0 mm 3 m/s 749 mmHg 93%
04:00 +4°C° 0 mm 3 m/s 750 mmHg 91%
05:00 +4°C° 0 mm 4 m/s 751 mmHg 89%
06:00 +5°C° 0 mm 4 m/s 751 mmHg 88%
07:00 +6°C° 0 mm 5 m/s 752 mmHg 82%
08:00 +7°C° 0 mm 5 m/s 752 mmHg 76%
09:00 +8°C° 0 mm 6 m/s 752 mmHg 70%
10:00 +9°C° 0 mm 6 m/s 752 mmHg 65%
11:00 +10°C° 0 mm 6 m/s 753 mmHg 61%
12:00 +12°C° 0 mm 5 m/s 753 mmHg 57%
13:00 +13°C° 0 mm 5 m/s 753 mmHg 55%
14:00 +13°C° 0 mm 5 m/s 753 mmHg 53%
15:00 +14°C° 0 mm 5 m/s 753 mmHg 51%
16:00 +13°C° 0 mm 5 m/s 753 mmHg 55%
17:00 +13°C° 0 mm 4 m/s 753 mmHg 58%
18:00 +12°C° 0 mm 4 m/s 753 mmHg 61%
19:00 +11°C° 0 mm 3 m/s 753 mmHg 65%
20:00 +9°C° 0 mm 3 m/s 754 mmHg 69%
21:00 +8°C° 0 mm 2 m/s 754 mmHg 73%
22:00 +7°C° 0 mm 2 m/s 754 mmHg 74%
23:00 +7°C° 0 mm 2 m/s 754 mmHg 76%

11 Mai, Marţi

Timp Temperatura Precipitaţii Vânt Presiune Umiditate
00:00 +5°C° 0 mm 3 m/s 754 mmHg 78%
01:00 +5°C° 0 mm 3 m/s 754 mmHg 78%
02:00 +5°C° 0 mm 2 m/s 754 mmHg 79%
03:00 +5°C° 0 mm 2 m/s 754 mmHg 79%
04:00 +5°C° 0 mm 3 m/s 755 mmHg 78%
05:00 +5°C° 0 mm 3 m/s 755 mmHg 77%
06:00 +7°C° 0 mm 3 m/s 755 mmHg 77%
07:00 +9°C° 0 mm 3 m/s 755 mmHg 70%
08:00 +11°C° 0 mm 4 m/s 755 mmHg 64%
09:00 +12°C° 0 mm 4 m/s 755 mmHg 58%
10:00 +14°C° 0 mm 4 m/s 755 mmHg 54%
11:00 +15°C° 0 mm 4 m/s 755 mmHg 50%
12:00 +17°C° 0 mm 4 m/s 755 mmHg 46%
13:00 +17°C° 0 mm 4 m/s 755 mmHg 45%
14:00 +18°C° 0 mm 4 m/s 754 mmHg 44%
15:00 +18°C° 0 mm 4 m/s 754 mmHg 43%
16:00 +18°C° 0 mm 3 m/s 754 mmHg 49%
17:00 +17°C° 0 mm 3 m/s 754 mmHg 55%
18:00 +17°C° 0 mm 2 m/s 754 mmHg 61%
19:00 +15°C° 0 mm 2 m/s 754 mmHg 65%
20:00 +13°C° 0 mm 2 m/s 754 mmHg 69%
21:00 +12°C° 0 mm 2 m/s 754 mmHg 72%
22:00 +10°C° 0 mm 2 m/s 754 mmHg 72%
23:00 +10°C° 0 mm 2 m/s 754 mmHg 73%
Arată mai mult

Formular de consimțământ

Meteoprog și furnizorii noștri de servicii pot stoca și accesa date personale, precum cookies, identificatori de dispozitiv sau alte tehnologii similare pe dispozitivul dumneavoastră și procesa astfel de date pentru a personaliza conținutul și reclamele, dar și pentru a oferi caracteristici de social media și pentru a analiza traficul.

  • Stocarea și/sau accesarea informațiilor pe dispozitivul dumneavoastră

    Cookies, identificatori de dispozitiv sau alte informații pot fi stocate sau accesate pe dispozitiv în scopurile indicate mai sus.

  • Reclame și conținut personalizat, evaluarea reclamelor și a conținutului, informații despre audiențe și dezvoltarea produselor

    Reclamele și conținutul pot fi personalizate pe baza unui profil. Pot fi adăugate date suplimentare pentru a personaliza mai bine reclamele și conținutul. Performanța reclamelor și conținutului poate fi măsurată. Pot fi obținute informații despre utilizatorii care au văzut reclamele și conținutul. Aceste date pot fi utilizate pentru a dezvolta sau îmbunătăți experiența utilizatorilor, sistemele și software-ul.

Dând clic pe ‘Sunt de acord’, permiteți utilizarea cookie-urilor menționate, a identificatorilor de dispozitiv, balizelor web sau altor tehnologii similare. Setările pot fi modificate din browser-ul dispozitivului dumneavoastră.

În anumite scopuri, interesele legitime pot prima asupra consimțământului. Puteți citi mai multe informații în acest sens în Politica privind Confidențialitatea Datelor și Cookie.